TimeCST,TemperatureF,Dew PointF,Humidity,Sea Level PressureIn,VisibilityMPH,Wind Direction,Wind SpeedMPH,Gust SpeedMPH,PrecipitationIn,Events,Conditions,WindDirDegrees,DateUTC
12:53 AM,21.2,19.4,93,30.32,10.0,WSW,8.1,-,N/A,,Clear,250,2013-01-03 06:53:00
1:53 AM,21.0,18.0,88,30.39,10.0,West,6.9,-,N/A,,Clear,270,2013-01-03 07:53:00
2:53 AM,21.0,18.0,88,30.42,10.0,WNW,6.9,-,N/A,,Clear,300,2013-01-03 08:53:00
3:53 AM,24.1,18.0,77,30.42,10.0,NW,8.1,-,N/A,,Clear,310,2013-01-03 09:53:00
4:53 AM,21.9,17.1,82,30.43,10.0,NW,3.5,-,N/A,,Clear,310,2013-01-03 10:53:00
5:53 AM,21.0,16.0,81,30.45,10.0,NNW,8.1,-,N/A,,Clear,330,2013-01-03 11:53:00
6:53 AM,19.9,15.1,81,30.48,10.0,NW,6.9,-,N/A,,Clear,310,2013-01-03 12:53:00
7:53 AM,19.9,14.0,78,30.49,10.0,NW,9.2,-,N/A,,Clear,320,2013-01-03 13:53:00
8:53 AM,21.9,16.0,78,30.51,10.0,NW,10.4,-,N/A,,Clear,310,2013-01-03 14:53:00
9:53 AM,26.1,18.0,71,30.52,10.0,NNW,9.2,-,N/A,,Clear,340,2013-01-03 15:53:00
10:53 AM,28.9,19.9,69,30.54,10.0,NW,8.1,-,N/A,,Clear,320,2013-01-03 16:53:00
11:53 AM,33.1,19.9,59,30.51,10.0,NNW,6.9,-,N/A,,Clear,330,2013-01-03 17:53:00
12:53 PM,35.1,19.9,54,30.48,10.0,North,6.9,-,N/A,,Clear,350,2013-01-03 18:53:00
1:53 PM,36.0,19.0,50,30.45,10.0,NW,9.2,-,N/A,,Clear,320,2013-01-03 19:53:00
2:53 PM,37.0,18.0,46,30.45,10.0,Variable,3.5,-,N/A,,Clear,0,2013-01-03 20:53:00
3:53 PM,37.0,17.1,44,30.44,10.0,NW,8.1,-,N/A,,Clear,320,2013-01-03 21:53:00
4:53 PM,36.0,18.0,48,30.44,10.0,NNW,4.6,-,N/A,,Clear,330,2013-01-03 22:53:00
5:53 PM,28.9,19.0,67,30.46,10.0,WNW,3.5,-,N/A,,Clear,300,2013-01-03 23:53:00
6:53 PM,25.0,18.0,75,30.47,10.0,Calm,Calm,-,N/A,,Clear,0,2013-01-04 00:53:00
7:53 PM,21.0,16.0,81,30.47,10.0,Calm,Calm,-,N/A,,Clear,0,2013-01-04 01:53:00
8:53 PM,19.9,17.1,89,30.47,10.0,SSW,3.5,-,N/A,,Clear,200,2013-01-04 02:53:00
9:53 PM,19.0,16.0,88,30.46,10.0,South,5.8,-,N/A,,Clear,180,2013-01-04 03:53:00
10:53 PM,19.9,16.0,85,30.47,10.0,South,5.8,-,N/A,,Clear,190,2013-01-04 04:53:00
11:53 PM,19.4,15.8,86,30.38,10.0,SSW,3.5,-,N/A,,Clear,210,2013-01-04 05:53:00